CW5761 Weather Reports


time (UTC)temp
F
wind
direction
speed
knots
gust
knots
rain 1hr
in
rain 24hr
in
rain mn
in
humidity
%
barometer
mb
20260506124004 66 17 0.0 0.0 0.00 0.00 0.00 78 1009.2
20260506123009 66 115 0.0 0.0 0.00 0.00 0.00 78 1009.2
20260506122004 66 105 0.0 0.0 0.00 0.00 0.00 78 1009.1
20260506121005 66 128 0.0 0.0 0.00 0.00 0.00 79 1009.1
20260506120315 66 98 0.0 0.0 0.00 0.00 0.00 79 1009.1
20260506115009 66 111 0.0 0.0 0.00 0.00 0.00 79 1009.1
20260506112010 65 98 0.0 0.0 0.00 0.00 0.00 80 1009.2
20260506111004 65 101 0.0 0.0 0.00 0.00 0.00 80 1008.8
20260506110214 65 115 0.0 0.0 0.00 0.00 0.00 80 1008.8
20260506105004 65 109 0.0 0.0 0.00 0.00 0.00 80 1008.8
20260506103004 65 103 0.0 0.0 0.00 0.00 0.00 81 1008.7
20260506102009 65 104 0.0 0.0 0.00 0.00 0.00 81 1008.7
20260506101009 65 103 0.0 0.0 0.00 0.00 0.00 80 1008.7
20260506100004 65 96 0.0 0.0 0.00 0.00 0.00 80 1008.7
20260506094005 65 107 0.0 0.0 0.00 0.00 0.00 80 1008.6
20260506093005 65 106 0.0 0.0 0.00 0.00 0.00 80 1008.6
20260506092005 65 82 0.0 0.0 0.00 0.00 0.00 80 1008.6
20260506091005 65 84 0.0 0.0 0.00 0.00 0.00 80 1008.7
20260506090309 65 84 0.0 0.0 0.00 0.00 0.00 80 1008.7
20260506085009 65 86 0.0 0.0 0.00 0.00 0.00 81 1008.8
20260506084004 65 350 5.2 0.0 0.00 0.00 0.00 81 1008.8
20260506082004 65 97 0.0 0.0 0.00 0.00 0.00 80 1008.9
20260506081004 65 98 0.0 0.0 0.00 0.00 0.00 80 1008.8
20260506072009 67 105 0.0 0.0 0.00 0.00 0.00 75 1009.0
20260506071005 67 115 0.0 0.0 0.00 0.00 0.00 75 1008.9
20260506051004 68 79 0.0 0.0 0.00 0.00 0.00 70 1009.8
20260506045009 68 78 0.0 0.0 0.00 0.00 0.00 68 1009.8
20260506044008 68 78 0.0 0.0 0.00 0.00 0.00 68 1009.7
20260506041814 68 77 0.0 0.0 0.00 0.00 0.00 67 1009.7
20260506035004 69 39 0.0 0.0 0.00 0.00 0.00 66 1009.6
20260506034005 69 115 0.0 0.0 0.00 0.00 0.00 66 1009.6
20260506033004 69 119 0.0 0.0 0.00 0.00 0.00 65 1009.6
20260506032004 70 121 0.0 0.0 0.00 0.00 0.00 65 1009.6
20260506031004 70 101 0.0 0.0 0.00 0.00 0.00 65 1009.6
20260506030159 70 103 0.0 0.0 0.00 0.00 0.00 64 1009.6
20260506025004 70 109 0.0 0.0 0.00 0.00 0.00 63 1009.7
20260506024004 71 86 0.0 0.0 0.00 0.00 0.00 62 1009.7
20260506023005 71 110 0.9 0.0 0.00 0.00 0.00 60 1009.7
20260506022004 72 110 0.0 0.0 0.00 0.00 0.00 58 1009.7
20260506021004 72 127 0.0 0.0 0.00 0.00 0.00 56 1009.7
20260506020005 73 111 0.0 0.0 0.00 0.00 0.00 54 1009.7
20260506015010 74 123 2.6 0.0 0.00 0.00 0.00 52 1009.6
20260506014005 74 184 0.0 0.0 0.00 0.00 0.00 50 1009.2
20260506013010 74 98 1.7 0.0 0.00 0.00 0.00 50 1009.2
20260506012009 74 153 0.0 0.0 0.00 0.00 0.00 50 1009.2
20260506011004 75 105 0.0 0.0 0.00 0.00 0.00 50 1009.1
20260506005004 75 95 3.5 0.0 0.00 0.00 0.00 48 1009.1
20260506004004 76 111 0.0 0.0 0.00 0.00 0.00 48 1008.7
20260506002004 76 109 0.0 0.0 0.00 0.00 0.00 49 1008.7
20260506001004 76 92 0.0 0.0 0.00 0.00 0.00 49 1008.7
20260505235004 77 105 0.0 0.0 0.00 0.00 0.00 47 1008.4
20260505232825 78 92 0.0 0.0 0.00 0.00 0.00 46 1008.2
20260505225008 80 103 0.0 0.0 0.00 0.00 0.00 40 1008.2
20260505224004 80 198 0.0 0.0 0.00 0.00 0.00 39 1008.0
20260505222005 80 86 0.0 0.0 0.00 0.00 0.00 39 1008.1
20260505221009 80 85 0.0 0.0 0.00 0.00 0.00 39 1007.9
20260505220005 80 5 5.2 0.0 0.00 0.00 0.00 37 1007.9
20260505215004 81 98 0.0 0.0 0.00 0.00 0.00 36 1007.7
20260505213004 81 136 0.0 0.0 0.00 0.00 0.00 37 1007.7
20260505212004 82 34 0.9 0.0 0.00 0.00 0.00 37 1007.7
20260505211005 82 293 0.0 0.0 0.00 0.00 0.00 36 1007.7
20260505210005 82 5 0.9 0.0 0.00 0.00 0.00 36 1007.7
20260505205005 82 171 3.5 0.0 0.00 0.00 0.00 36 1007.7
20260505204004 82 323 0.0 0.0 0.00 0.00 0.00 36 1007.7
20260505203005 82 275 0.0 0.0 0.00 0.00 0.00 33 1007.7
20260505202004 83 108 0.0 0.0 0.00 0.00 0.00 32 1007.7
20260505201004 83 346 0.0 0.0 0.00 0.00 0.00 33 1008.0
20260505194005 82 40 0.0 0.0 0.00 0.00 0.00 36 1008.1
20260505193005 82 182 0.0 0.0 0.00 0.00 0.00 36 1008.1
20260505192004 83 140 0.0 0.0 0.00 0.00 0.00 36 1008.2
20260505191009 82 103 11.3 0.0 0.00 0.00 0.00 36 1008.5
20260505190400 83 155 3.5 0.0 0.00 0.00 0.00 37 1008.5
20260505185004 83 179 0.0 0.0 0.00 0.00 0.00 37 1008.7
20260505183003 82 125 2.6 0.0 0.00 0.00 0.00 41 1008.7
20260505175004 84 105 0.0 0.0 0.00 0.00 0.00 43 1009.2
20260505174004 84 119 0.0 0.0 0.00 0.00 0.00 45 1009.2
20260505173004 83 111 0.0 0.0 0.00 0.00 0.00 45 1009.2
20260505172004 83 63 0.0 0.0 0.00 0.00 0.00 43 1009.2
20260505171004 83 105 7.8 0.0 0.00 0.00 0.00 44 1009.3
20260505170004 82 98 0.0 0.0 0.00 0.00 0.00 42 1009.3
20260505165004 82 340 0.0 0.0 0.00 0.00 0.00 42 1009.6
20260505164004 82 349 0.0 0.0 0.00 0.00 0.00 44 1009.6
20260505163004 82 116 0.0 0.0 0.00 0.00 0.00 45 1009.6
20260505162004 82 126 0.0 0.0 0.00 0.00 0.00 42 1009.7
20260505153004 79 335 0.0 0.0 0.00 0.00 0.00 47 1010.2
20260505151005 78 94 0.0 0.0 0.00 0.00 0.00 49 1010.3